Time,TemperatureF,DewpointF,PressureIn,WindDirection,WindDirectionDegrees,WindSpeedMPH,WindSpeedGustMPH,Humidity,HourlyPrecipIn,Conditions,Clouds,dailyrainin,SoftwareType,DateUTC
2013-10-30 00:00:00,51.2,50.1,30.20,NNW,344,0.0,1.0,96,0.01,,BKN055,0.01,VWS V14.00,2013-10-30 04:00:00,
2013-10-30 00:01:00,51.1,50.6,30.18,NNW,343,0.0,0.0,98,0.06,,BKN055,0.06,VWS V14.00,2013-10-30 04:01:00,
2013-10-30 00:10:00,51.2,50.1,30.20,NNW,344,0.0,2.0,96,0.02,,BKN055,0.02,VWS V14.00,2013-10-30 04:10:00,
2013-10-30 00:11:00,51.2,50.7,30.18,NNW,343,0.0,1.0,98,0.06,,BKN055,0.01,VWS V14.00,2013-10-30 04:11:00,
2013-10-30 00:20:00,51.2,50.1,30.20,NNW,345,0.0,0.0,96,0.02,,BKN055,0.02,VWS V14.00,2013-10-30 04:20:00,
2013-10-30 00:21:00,51.2,50.7,30.18,NNW,346,2.0,2.0,98,0.05,,BKN055,0.01,VWS V14.00,2013-10-30 04:21:00,
2013-10-30 00:30:00,51.1,50.3,30.19,NNW,346,0.0,0.0,97,0.03,,BKN055,0.03,VWS V14.00,2013-10-30 04:30:00,
2013-10-30 00:31:00,51.3,50.8,30.18,NNW,340,0.0,4.0,98,0.05,,BKN055,0.01,VWS V14.00,2013-10-30 04:31:00,
2013-10-30 00:40:00,51.1,50.3,30.19,NNW,346,0.0,0.0,97,0.04,,BKN055,0.04,VWS V14.00,2013-10-30 04:40:00,
2013-10-30 00:41:00,51.3,50.8,30.17,NNW,340,0.0,0.0,98,0.07,,BKN055,0.04,VWS V14.00,2013-10-30 04:41:00,
2013-10-30 00:50:00,51.1,50.3,30.19,NNW,341,0.0,3.0,97,0.05,,BKN055,0.05,VWS V14.00,2013-10-30 04:50:00,
2013-10-30 00:51:00,51.3,50.8,30.17,NNW,340,0.0,0.0,98,0.07,,BKN055,0.05,VWS V14.00,2013-10-30 04:51:00,
2013-10-30 01:00:00,51.1,50.6,30.18,NNW,343,0.0,0.0,98,0.06,,BKN055,0.06,VWS V14.00,2013-10-30 05:00:00,
2013-10-30 01:01:00,51.5,51.2,30.16,NNW,340,0.0,0.0,99,0.07,,BKN055,0.06,VWS V14.00,2013-10-30 05:01:00,
2013-10-30 01:10:00,51.2,50.7,30.18,NNW,343,0.0,1.0,98,0.06,,BKN055,0.01,VWS V14.00,2013-10-30 05:10:00,
2013-10-30 01:11:00,51.9,51.6,30.15,NNW,340,0.0,0.0,99,0.06,,BKN055,0.06,VWS V14.00,2013-10-30 05:11:00,
2013-10-30 01:20:00,51.2,50.7,30.18,NNW,346,2.0,2.0,98,0.05,,BKN055,0.01,VWS V14.00,2013-10-30 05:20:00,
2013-10-30 01:21:00,52.1,51.8,30.15,NNW,340,0.0,1.0,99,0.06,,BKN055,0.07,VWS V14.00,2013-10-30 05:21:00,
2013-10-30 01:30:00,51.3,50.8,30.18,NNW,340,0.0,4.0,98,0.05,,BKN055,0.01,VWS V14.00,2013-10-30 05:30:00,
2013-10-30 01:31:00,52.1,51.8,30.14,NNW,340,0.0,0.0,99,0.06,,BKN055,0.07,VWS V14.00,2013-10-30 05:31:00,
2013-10-30 01:40:00,51.3,50.8,30.17,NNW,340,0.0,0.0,98,0.07,,BKN055,0.04,VWS V14.00,2013-10-30 05:40:00,
2013-10-30 01:41:00,52.2,51.9,30.14,NNW,340,0.0,0.0,99,0.06,,BKN055,0.07,VWS V14.00,2013-10-30 05:41:00,
2013-10-30 01:50:00,51.3,50.8,30.17,NNW,340,0.0,0.0,98,0.07,,BKN055,0.05,VWS V14.00,2013-10-30 05:50:00,
2013-10-30 01:51:00,52.4,52.1,30.14,NNW,340,0.0,0.0,99,0.03,,BKN055,0.07,VWS V14.00,2013-10-30 05:51:00,
2013-10-30 02:00:00,51.5,51.2,30.16,NNW,340,0.0,0.0,99,0.07,,BKN055,0.06,VWS V14.00,2013-10-30 06:00:00,
2013-10-30 02:01:00,52.4,52.1,30.14,NNW,340,0.0,0.0,99,0.03,,BKN055,0.08,VWS V14.00,2013-10-30 06:01:00,
2013-10-30 02:10:00,51.9,51.6,30.15,NNW,340,0.0,0.0,99,0.06,,BKN055,0.06,VWS V14.00,2013-10-30 06:10:00,
2013-10-30 02:11:00,52.3,52.0,30.14,NNW,345,3.0,3.0,99,0.02,,BKN055,0.08,VWS V14.00,2013-10-30 06:11:00,
2013-10-30 02:20:00,52.1,51.8,30.15,NNW,340,0.0,1.0,99,0.06,,BKN055,0.07,VWS V14.00,2013-10-30 06:20:00,
2013-10-30 02:21:00,52.2,51.9,30.13,North,355,1.0,3.0,99,0.02,,BKN055,0.08,VWS V14.00,2013-10-30 06:21:00,
2013-10-30 02:30:00,52.1,51.8,30.14,NNW,340,0.0,0.0,99,0.06,,BKN055,0.07,VWS V14.00,2013-10-30 06:30:00,
2013-10-30 02:31:00,52.4,52.1,30.13,WNW,300,0.0,2.0,99,0.01,,BKN055,0.08,VWS V14.00,2013-10-30 06:31:00,
2013-10-30 02:40:00,52.2,51.9,30.14,NNW,340,0.0,0.0,99,0.06,,BKN055,0.07,VWS V14.00,2013-10-30 06:40:00,
2013-10-30 02:41:00,52.5,52.2,30.12,WNW,303,0.0,0.0,99,0.01,,BKN055,0.08,VWS V14.00,2013-10-30 06:41:00,
2013-10-30 02:50:00,52.4,52.1,30.14,NNW,340,0.0,0.0,99,0.03,,BKN055,0.07,VWS V14.00,2013-10-30 06:50:00,
2013-10-30 02:51:00,53.0,52.7,30.12,NW,305,0.0,1.0,99,0.01,,BKN055,0.08,VWS V14.00,2013-10-30 06:51:00,
2013-10-30 03:00:00,52.4,52.1,30.14,NNW,340,0.0,0.0,99,0.03,,BKN055,0.08,VWS V14.00,2013-10-30 07:00:00,
2013-10-30 03:01:00,53.2,52.9,30.12,NW,305,0.0,0.0,99,0.02,,BKN055,0.09,VWS V14.00,2013-10-30 07:01:00,
2013-10-30 03:10:00,52.3,52.0,30.14,NNW,345,3.0,3.0,99,0.02,,BKN055,0.08,VWS V14.00,2013-10-30 07:10:00,
2013-10-30 03:11:00,53.3,53.0,30.12,NW,306,0.0,0.0,99,0.02,,BKN055,0.10,VWS V14.00,2013-10-30 07:11:00,
2013-10-30 03:20:00,52.2,51.9,30.13,North,355,1.0,3.0,99,0.02,,BKN055,0.08,VWS V14.00,2013-10-30 07:20:00,
2013-10-30 03:21:00,53.2,52.9,30.12,NNW,330,0.0,2.0,99,0.03,,BKN055,0.11,VWS V14.00,2013-10-30 07:21:00,
2013-10-30 03:30:00,52.4,52.1,30.13,WNW,300,0.0,2.0,99,0.01,,BKN055,0.08,VWS V14.00,2013-10-30 07:30:00,
2013-10-30 03:31:00,53.2,52.9,30.13,North,355,0.0,4.0,99,0.03,,BKN055,0.11,VWS V14.00,2013-10-30 07:31:00,
2013-10-30 03:40:00,52.5,52.2,30.12,WNW,303,0.0,0.0,99,0.01,,BKN055,0.08,VWS V14.00,2013-10-30 07:40:00,
2013-10-30 03:41:00,53.4,53.1,30.13,North,355,0.0,2.0,99,0.03,,BKN055,0.11,VWS V14.00,2013-10-30 07:41:00,
2013-10-30 03:50:00,53.0,52.7,30.12,NW,305,0.0,1.0,99,0.01,,BKN055,0.08,VWS V14.00,2013-10-30 07:50:00,
2013-10-30 03:51:00,53.5,53.2,30.13,North,355,0.0,1.0,99,0.03,,BKN055,0.11,VWS V14.00,2013-10-30 07:51:00,
2013-10-30 04:00:00,53.2,52.9,30.12,NW,305,0.0,0.0,99,0.02,,BKN055,0.09,VWS V14.00,2013-10-30 08:00:00,
2013-10-30 04:01:00,53.8,53.5,30.12,ENE,57,0.0,3.0,99,0.03,,BKN055,0.11,VWS V14.00,2013-10-30 08:01:00,
2013-10-30 04:10:00,53.3,53.0,30.12,NW,306,0.0,0.0,99,0.02,,BKN055,0.10,VWS V14.00,2013-10-30 08:10:00,
2013-10-30 04:11:00,54.5,54.5,30.12,ENE,57,0.0,1.0,100,0.03,,BKN055,0.12,VWS V14.00,2013-10-30 08:11:00,
2013-10-30 04:20:00,53.2,52.9,30.12,NNW,330,0.0,2.0,99,0.03,,BKN055,0.11,VWS V14.00,2013-10-30 08:20:00,
2013-10-30 04:21:00,54.5,54.5,30.12,ENE,57,0.0,0.0,100,0.02,,BKN055,0.12,VWS V14.00,2013-10-30 08:21:00,
2013-10-30 04:30:00,53.2,52.9,30.13,North,355,0.0,4.0,99,0.03,,BKN055,0.11,VWS V14.00,2013-10-30 08:30:00,
2013-10-30 04:31:00,54.4,54.1,30.11,ENE,57,0.0,0.0,99,0.01,,BKN055,0.12,VWS V14.00,2013-10-30 08:31:00,
2013-10-30 04:40:00,53.4,53.1,30.13,North,355,0.0,2.0,99,0.03,,BKN055,0.11,VWS V14.00,2013-10-30 08:40:00,
2013-10-30 04:41:00,54.5,54.5,30.11,ENE,57,0.0,0.0,100,0.01,,BKN055,0.12,VWS V14.00,2013-10-30 08:41:00,
2013-10-30 04:50:00,53.5,53.2,30.13,North,355,0.0,1.0,99,0.03,,BKN055,0.11,VWS V14.00,2013-10-30 08:50:00,
2013-10-30 04:51:00,54.5,54.5,30.12,ENE,57,0.0,0.0,100,0.02,,BKN055,0.13,VWS V14.00,2013-10-30 08:51:00,
2013-10-30 05:00:00,53.8,53.5,30.12,ENE,57,0.0,3.0,99,0.03,,BKN055,0.11,VWS V14.00,2013-10-30 09:00:00,
2013-10-30 05:01:00,54.6,54.6,30.11,North,5,0.0,1.0,100,0.02,,BKN055,0.13,VWS V14.00,2013-10-30 09:01:00,
2013-10-30 05:10:00,54.5,54.5,30.12,ENE,57,0.0,1.0,100,0.03,,BKN055,0.12,VWS V14.00,2013-10-30 09:10:00,
2013-10-30 05:11:00,54.6,54.6,30.12,North,5,0.0,0.0,100,0.02,,BKN055,0.13,VWS V14.00,2013-10-30 09:11:00,
2013-10-30 05:20:00,54.5,54.5,30.12,ENE,57,0.0,0.0,100,0.02,,BKN055,0.12,VWS V14.00,2013-10-30 09:20:00,
2013-10-30 05:21:00,54.7,54.7,30.11,North,5,0.0,0.0,100,0.01,,BKN055,0.13,VWS V14.00,2013-10-30 09:21:00,
2013-10-30 05:30:00,54.4,54.1,30.11,ENE,57,0.0,0.0,99,0.01,,BKN055,0.12,VWS V14.00,2013-10-30 09:30:00,
2013-10-30 05:31:00,54.7,54.7,30.11,North,360,0.0,0.0,100,0.01,,BKN055,0.13,VWS V14.00,2013-10-30 09:31:00,
2013-10-30 05:40:00,54.5,54.5,30.11,ENE,57,0.0,0.0,100,0.01,,BKN055,0.12,VWS V14.00,2013-10-30 09:40:00,
2013-10-30 05:41:00,54.7,54.7,30.11,North,5,0.0,0.0,100,0.01,,BKN055,0.13,VWS V14.00,2013-10-30 09:41:00,
2013-10-30 05:50:00,54.5,54.5,30.12,ENE,57,0.0,0.0,100,0.02,,BKN055,0.13,VWS V14.00,2013-10-30 09:50:00,
2013-10-30 05:51:00,54.9,54.9,30.12,North,5,0.0,0.0,100,0.02,,BKN055,0.14,VWS V14.00,2013-10-30 09:51:00,
2013-10-30 06:00:00,54.6,54.6,30.11,North,5,0.0,1.0,100,0.02,,BKN055,0.13,VWS V14.00,2013-10-30 10:00:00,
2013-10-30 06:01:00,55.0,55.0,30.12,North,5,0.0,0.0,100,0.04,,BKN055,0.17,VWS V14.00,2013-10-30 10:01:00,
2013-10-30 06:10:00,54.6,54.6,30.12,North,5,0.0,0.0,100,0.02,,BKN055,0.13,VWS V14.00,2013-10-30 10:10:00,
2013-10-30 06:11:00,55.0,55.0,30.11,North,360,0.0,0.0,100,0.04,,BKN055,0.17,VWS V14.00,2013-10-30 10:11:00,
2013-10-30 06:20:00,54.7,54.7,30.11,North,5,0.0,0.0,100,0.01,,BKN055,0.13,VWS V14.00,2013-10-30 10:20:00,
2013-10-30 06:21:00,55.0,55.0,30.12,North,5,0.0,0.0,100,0.04,,BKN055,0.17,VWS V14.00,2013-10-30 10:21:00,
2013-10-30 06:30:00,54.7,54.7,30.11,North,360,0.0,0.0,100,0.01,,BKN055,0.13,VWS V14.00,2013-10-30 10:30:00,
2013-10-30 06:31:00,54.8,54.8,30.12,North,360,0.0,0.0,100,0.04,,BKN055,0.17,VWS V14.00,2013-10-30 10:31:00,
2013-10-30 06:40:00,54.7,54.7,30.11,North,5,0.0,0.0,100,0.01,,BKN055,0.13,VWS V14.00,2013-10-30 10:40:00,
2013-10-30 06:41:00,54.7,54.7,30.13,North,5,0.0,0.0,100,0.04,,BKN055,0.17,VWS V14.00,2013-10-30 10:41:00,
2013-10-30 06:50:00,54.9,54.9,30.12,North,5,0.0,0.0,100,0.02,,BKN055,0.14,VWS V14.00,2013-10-30 10:50:00,
2013-10-30 06:51:00,54.6,54.6,30.13,North,360,0.0,0.0,100,0.05,,BKN055,0.18,VWS V14.00,2013-10-30 10:51:00,
2013-10-30 07:00:00,55.0,55.0,30.12,North,5,0.0,0.0,100,0.04,,BKN055,0.17,VWS V14.00,2013-10-30 11:00:00,
2013-10-30 07:01:00,54.5,54.5,30.13,North,5,0.0,1.0,100,0.04,,BKN055,0.18,VWS V14.00,2013-10-30 11:01:00,
2013-10-30 07:10:00,55.0,55.0,30.11,North,360,0.0,0.0,100,0.04,,BKN055,0.17,VWS V14.00,2013-10-30 11:10:00,
2013-10-30 07:11:00,54.5,54.5,30.13,North,5,0.0,1.0,100,0.01,,BKN055,0.18,VWS V14.00,2013-10-30 11:11:00,
2013-10-30 07:20:00,55.0,55.0,30.12,North,5,0.0,0.0,100,0.04,,BKN055,0.17,VWS V14.00,2013-10-30 11:20:00,
2013-10-30 07:21:00,54.4,54.4,30.13,North,5,0.0,0.0,100,0.01,,BKN055,0.18,VWS V14.00,2013-10-30 11:21:00,
2013-10-30 07:30:00,54.8,54.8,30.12,North,360,0.0,0.0,100,0.04,,BKN055,0.17,VWS V14.00,2013-10-30 11:30:00,
2013-10-30 07:31:00,54.3,54.3,30.12,North,5,0.0,0.0,100,0.01,,BKN055,0.18,VWS V14.00,2013-10-30 11:31:00,
2013-10-30 07:40:00,54.7,54.7,30.13,North,5,0.0,0.0,100,0.04,,BKN055,0.17,VWS V14.00,2013-10-30 11:40:00,
2013-10-30 07:41:00,54.4,54.4,30.13,North,360,0.0,0.0,100,0.01,,BKN055,0.18,VWS V14.00,2013-10-30 11:41:00,
2013-10-30 07:50:00,54.6,54.6,30.13,North,360,0.0,0.0,100,0.05,,BKN055,0.18,VWS V14.00,2013-10-30 11:50:00,
2013-10-30 07:51:00,54.4,54.4,30.13,North,5,0.0,0.0,100,0.01,,BKN055,0.18,VWS V14.00,2013-10-30 11:51:00,
2013-10-30 08:00:00,54.5,54.5,30.13,North,5,0.0,1.0,100,0.04,,BKN055,0.18,VWS V14.00,2013-10-30 12:00:00,
2013-10-30 08:01:00,54.5,54.5,30.13,North,360,0.0,0.0,100,0.00,,BKN055,0.18,VWS V14.00,2013-10-30 12:01:00,
2013-10-30 08:10:00,54.5,54.5,30.13,North,5,0.0,1.0,100,0.01,,BKN055,0.18,VWS V14.00,2013-10-30 12:10:00,
2013-10-30 08:11:00,54.6,54.6,30.13,North,5,0.0,0.0,100,0.00,,BKN055,0.18,VWS V14.00,2013-10-30 12:11:00,
2013-10-30 08:20:00,54.4,54.4,30.13,North,5,0.0,0.0,100,0.01,,BKN055,0.18,VWS V14.00,2013-10-30 12:20:00,
2013-10-30 08:21:00,54.7,54.7,30.13,North,360,0.0,0.0,100,0.00,,BKN055,0.18,VWS V14.00,2013-10-30 12:21:00,
2013-10-30 08:30:00,54.3,54.3,30.12,North,5,0.0,0.0,100,0.01,,BKN055,0.18,VWS V14.00,2013-10-30 12:30:00,
2013-10-30 08:31:00,54.6,54.6,30.13,North,5,0.0,0.0,100,0.00,,BKN055,0.18,VWS V14.00,2013-10-30 12:31:00,
2013-10-30 08:40:00,54.4,54.4,30.13,North,360,0.0,0.0,100,0.01,,BKN055,0.18,VWS V14.00,2013-10-30 12:40:00,
2013-10-30 08:41:00,54.8,54.8,30.13,North,360,0.0,0.0,100,0.00,,BKN055,0.18,VWS V14.00,2013-10-30 12:41:00,
2013-10-30 08:50:00,54.4,54.4,30.13,North,5,0.0,0.0,100,0.01,,BKN055,0.18,VWS V14.00,2013-10-30 12:50:00,
2013-10-30 08:51:00,54.9,54.9,30.13,North,5,0.0,0.0,100,0.00,,BKN055,0.18,VWS V14.00,2013-10-30 12:51:00,
2013-10-30 09:00:00,54.5,54.5,30.13,North,360,0.0,0.0,100,0.00,,BKN055,0.18,VWS V14.00,2013-10-30 13:00:00,
2013-10-30 09:01:00,55.1,55.1,30.13,North,5,0.0,0.0,100,0.00,,BKN055,0.18,VWS V14.00,2013-10-30 13:01:00,
2013-10-30 09:10:00,54.6,54.6,30.13,North,5,0.0,0.0,100,0.00,,BKN055,0.18,VWS V14.00,2013-10-30 13:10:00,
2013-10-30 09:11:00,55.7,55.7,30.13,North,5,0.0,0.0,100,0.00,,BKN055,0.18,VWS V14.00,2013-10-30 13:11:00,
2013-10-30 09:20:00,54.7,54.7,30.13,North,360,0.0,0.0,100,0.00,,BKN055,0.18,VWS V14.00,2013-10-30 13:20:00,
2013-10-30 09:21:00,55.7,55.7,30.14,NW,311,0.0,0.0,100,0.00,,BKN055,0.18,VWS V14.00,2013-10-30 13:21:00,
2013-10-30 09:30:00,54.6,54.6,30.13,North,5,0.0,0.0,100,0.00,,BKN055,0.18,VWS V14.00,2013-10-30 13:30:00,
2013-10-30 09:31:00,56.2,56.2,30.14,WNW,288,0.0,1.0,100,0.00,,BKN055,0.18,VWS V14.00,2013-10-30 13:31:00,
2013-10-30 09:40:00,54.8,54.8,30.13,North,360,0.0,0.0,100,0.00,,BKN055,0.18,VWS V14.00,2013-10-30 13:40:00,
2013-10-30 09:41:00,56.3,56.3,30.14,ESE,108,0.0,0.0,100,0.00,,BKN055,0.18,VWS V14.00,2013-10-30 13:41:00,
2013-10-30 09:50:00,54.9,54.9,30.13,North,5,0.0,0.0,100,0.00,,BKN055,0.18,VWS V14.00,2013-10-30 13:50:00,
2013-10-30 09:51:00,56.6,56.6,30.15,ESE,107,0.0,0.0,100,0.00,,BKN055,0.18,VWS V14.00,2013-10-30 13:51:00,
2013-10-30 10:00:00,55.1,55.1,30.13,North,5,0.0,0.0,100,0.00,,BKN055,0.18,VWS V14.00,2013-10-30 14:00:00,
2013-10-30 10:01:00,56.9,56.9,30.15,WNW,298,0.0,0.0,100,0.00,,BKN055,0.18,VWS V14.00,2013-10-30 14:01:00,
2013-10-30 10:10:00,55.7,55.7,30.13,North,5,0.0,0.0,100,0.00,,BKN055,0.18,VWS V14.00,2013-10-30 14:10:00,
2013-10-30 10:11:00,57.0,57.0,30.15,WNW,298,0.0,0.0,100,0.00,,BKN055,0.18,VWS V14.00,2013-10-30 14:11:00,
2013-10-30 10:20:00,55.7,55.7,30.14,NW,311,0.0,0.0,100,0.00,,BKN055,0.18,VWS V14.00,2013-10-30 14:20:00,
2013-10-30 10:21:00,57.1,57.1,30.14,WNW,298,0.0,0.0,100,0.00,,BKN055,0.18,VWS V14.00,2013-10-30 14:21:00,
2013-10-30 10:30:00,56.2,56.2,30.14,WNW,288,0.0,1.0,100,0.00,,BKN055,0.18,VWS V14.00,2013-10-30 14:30:00,
2013-10-30 10:31:00,57.7,57.7,30.14,WNW,298,0.0,0.0,100,0.00,,BKN055,0.18,VWS V14.00,2013-10-30 14:31:00,
2013-10-30 10:40:00,56.3,56.3,30.14,ESE,108,0.0,0.0,100,0.00,,BKN055,0.18,VWS V14.00,2013-10-30 14:40:00,
2013-10-30 10:41:00,58.0,58.0,30.14,WNW,298,0.0,0.0,100,0.00,,BKN055,0.18,VWS V14.00,2013-10-30 14:41:00,
2013-10-30 10:50:00,56.6,56.6,30.15,ESE,107,0.0,0.0,100,0.00,,BKN055,0.18,VWS V14.00,2013-10-30 14:50:00,
2013-10-30 10:51:00,58.1,58.1,30.14,WNW,298,0.0,0.0,100,0.00,,BKN055,0.18,VWS V14.00,2013-10-30 14:51:00,
2013-10-30 11:00:00,56.9,56.9,30.15,WNW,298,0.0,0.0,100,0.00,,BKN055,0.18,VWS V14.00,2013-10-30 15:00:00,
2013-10-30 11:01:00,58.2,58.2,30.14,WNW,298,0.0,0.0,100,0.00,,BKN055,0.18,VWS V14.00,2013-10-30 15:01:00,
2013-10-30 11:10:00,57.0,57.0,30.15,WNW,298,0.0,0.0,100,0.00,,BKN055,0.18,VWS V14.00,2013-10-30 15:10:00,
2013-10-30 11:11:00,58.7,58.7,30.14,WNW,298,0.0,0.0,100,0.00,,BKN055,0.18,VWS V14.00,2013-10-30 15:11:00,
2013-10-30 11:20:00,57.1,57.1,30.14,WNW,298,0.0,0.0,100,0.00,,BKN055,0.18,VWS V14.00,2013-10-30 15:20:00,
2013-10-30 11:21:00,59.0,59.0,30.13,WNW,298,0.0,0.0,100,0.00,,BKN055,0.18,VWS V14.00,2013-10-30 15:21:00,
2013-10-30 11:30:00,57.7,57.7,30.14,WNW,298,0.0,0.0,100,0.00,,BKN055,0.18,VWS V14.00,2013-10-30 15:30:00,
2013-10-30 11:31:00,59.0,59.0,30.13,WNW,298,0.0,0.0,100,0.00,,BKN055,0.18,VWS V14.00,2013-10-30 15:31:00,
2013-10-30 11:40:00,58.0,58.0,30.14,WNW,298,0.0,0.0,100,0.00,,BKN055,0.18,VWS V14.00,2013-10-30 15:40:00,
2013-10-30 11:41:00,59.0,59.0,30.13,WNW,298,0.0,0.0,100,0.00,,BKN055,0.18,VWS V14.00,2013-10-30 15:41:00,
2013-10-30 11:50:00,58.1,58.1,30.14,WNW,298,0.0,0.0,100,0.00,,BKN055,0.18,VWS V14.00,2013-10-30 15:50:00,
2013-10-30 11:51:00,59.3,59.3,30.13,WNW,298,0.0,0.0,100,0.00,,BKN055,0.18,VWS V14.00,2013-10-30 15:51:00,
2013-10-30 12:00:00,58.2,58.2,30.14,WNW,298,0.0,0.0,100,0.00,,BKN055,0.18,VWS V14.00,2013-10-30 16:00:00,
2013-10-30 12:01:00,60.0,60.0,30.13,WNW,302,0.0,0.0,100,0.00,,BKN055,0.18,VWS V14.00,2013-10-30 16:01:00,
2013-10-30 12:10:00,58.7,58.7,30.14,WNW,298,0.0,0.0,100,0.00,,BKN055,0.18,VWS V14.00,2013-10-30 16:10:00,
2013-10-30 12:11:00,60.3,60.3,30.13,WNW,302,0.0,0.0,100,0.00,,BKN055,0.18,VWS V14.00,2013-10-30 16:11:00,
2013-10-30 12:20:00,59.0,59.0,30.13,WNW,298,0.0,0.0,100,0.00,,BKN055,0.18,VWS V14.00,2013-10-30 16:20:00,
2013-10-30 12:21:00,60.5,60.5,30.13,WNW,302,0.0,0.0,100,0.00,,BKN055,0.18,VWS V14.00,2013-10-30 16:21:00,
2013-10-30 12:30:00,59.0,59.0,30.13,WNW,298,0.0,0.0,100,0.00,,BKN055,0.18,VWS V14.00,2013-10-30 16:30:00,
2013-10-30 12:31:00,60.9,60.9,30.12,WNW,302,0.0,0.0,100,0.00,,BKN055,0.18,VWS V14.00,2013-10-30 16:31:00,
2013-10-30 12:40:00,59.0,59.0,30.13,WNW,298,0.0,0.0,100,0.00,,BKN055,0.18,VWS V14.00,2013-10-30 16:40:00,
2013-10-30 12:41:00,61.3,61.3,30.13,WNW,302,0.0,0.0,100,0.00,,BKN055,0.18,VWS V14.00,2013-10-30 16:41:00,
2013-10-30 12:50:00,59.3,59.3,30.13,WNW,298,0.0,0.0,100,0.00,,BKN055,0.18,VWS V14.00,2013-10-30 16:50:00,
2013-10-30 12:51:00,61.5,61.5,30.12,WNW,302,0.0,0.0,100,0.00,,BKN055,0.18,VWS V14.00,2013-10-30 16:51:00,
2013-10-30 13:00:00,60.0,60.0,30.13,WNW,302,0.0,0.0,100,0.00,,BKN055,0.18,VWS V14.00,2013-10-30 17:00:00,
2013-10-30 13:01:00,61.7,61.7,30.11,WNW,302,0.0,0.0,100,0.00,,BKN055,0.18,VWS V14.00,2013-10-30 17:01:00,
2013-10-30 13:10:00,60.3,60.3,30.13,WNW,302,0.0,0.0,100,0.00,,BKN055,0.18,VWS V14.00,2013-10-30 17:10:00,
2013-10-30 13:11:00,61.9,61.9,30.11,WNW,302,0.0,0.0,100,0.00,,BKN055,0.18,VWS V14.00,2013-10-30 17:11:00,
2013-10-30 13:20:00,60.5,60.5,30.13,WNW,302,0.0,0.0,100,0.00,,BKN055,0.18,VWS V14.00,2013-10-30 17:20:00,
2013-10-30 13:21:00,62.1,62.1,30.10,WNW,302,0.0,0.0,100,0.00,,BKN055,0.18,VWS V14.00,2013-10-30 17:21:00,
2013-10-30 13:30:00,60.9,60.9,30.12,WNW,302,0.0,0.0,100,0.00,,BKN055,0.18,VWS V14.00,2013-10-30 17:30:00,
2013-10-30 13:31:00,62.5,62.5,30.10,WNW,302,0.0,0.0,100,0.00,,BKN055,0.18,VWS V14.00,2013-10-30 17:31:00,
2013-10-30 13:40:00,61.3,61.3,30.13,WNW,302,0.0,0.0,100,0.00,,BKN055,0.18,VWS V14.00,2013-10-30 17:40:00,
2013-10-30 13:41:00,62.9,62.9,30.08,WNW,302,0.0,0.0,100,0.00,,BKN055,0.18,VWS V14.00,2013-10-30 17:41:00,
2013-10-30 13:50:00,61.5,61.5,30.12,WNW,302,0.0,0.0,100,0.00,,BKN055,0.18,VWS V14.00,2013-10-30 17:50:00,
2013-10-30 13:51:00,63.3,63.0,30.08,WNW,302,0.0,0.0,99,0.00,,BKN055,0.18,VWS V14.00,2013-10-30 17:51:00,
2013-10-30 14:00:00,61.7,61.7,30.11,WNW,302,0.0,0.0,100,0.00,,BKN055,0.18,VWS V14.00,2013-10-30 18:00:00,
2013-10-30 14:01:00,63.3,63.0,30.08,WNW,302,0.0,0.0,99,0.00,,BKN055,0.18,VWS V14.00,2013-10-30 18:01:00,
2013-10-30 14:10:00,61.9,61.9,30.11,WNW,302,0.0,0.0,100,0.00,,BKN055,0.18,VWS V14.00,2013-10-30 18:10:00,
2013-10-30 14:11:00,63.5,63.2,30.07,WNW,302,0.0,0.0,99,0.00,,BKN055,0.18,VWS V14.00,2013-10-30 18:11:00,
2013-10-30 14:20:00,62.1,62.1,30.10,WNW,302,0.0,0.0,100,0.00,,BKN055,0.18,VWS V14.00,2013-10-30 18:20:00,
2013-10-30 14:21:00,63.6,63.0,30.06,WNW,302,0.0,0.0,98,0.00,,BKN055,0.18,VWS V14.00,2013-10-30 18:21:00,
2013-10-30 14:30:00,62.5,62.5,30.10,WNW,302,0.0,0.0,100,0.00,,BKN055,0.18,VWS V14.00,2013-10-30 18:30:00,
2013-10-30 14:31:00,63.7,63.1,30.05,WNW,302,0.0,0.0,98,0.00,,BKN055,0.18,VWS V14.00,2013-10-30 18:31:00,
2013-10-30 14:40:00,62.9,62.9,30.08,WNW,302,0.0,0.0,100,0.00,,BKN055,0.18,VWS V14.00,2013-10-30 18:40:00,
2013-10-30 14:41:00,63.9,63.3,30.05,WNW,302,0.0,0.0,98,0.00,,BKN055,0.18,VWS V14.00,2013-10-30 18:41:00,
2013-10-30 14:50:00,63.3,63.0,30.08,WNW,302,0.0,0.0,99,0.00,,BKN055,0.18,VWS V14.00,2013-10-30 18:50:00,
2013-10-30 14:51:00,64.3,64.0,30.05,WNW,302,0.0,0.0,99,0.00,,BKN055,0.18,VWS V14.00,2013-10-30 18:51:00,
2013-10-30 15:00:00,63.3,63.0,30.08,WNW,302,0.0,0.0,99,0.00,,BKN055,0.18,VWS V14.00,2013-10-30 19:00:00,
2013-10-30 15:01:00,64.8,64.2,30.06,North,355,0.0,0.0,98,0.00,,BKN055,0.18,VWS V14.00,2013-10-30 19:01:00,
2013-10-30 15:10:00,63.5,63.2,30.07,WNW,302,0.0,0.0,99,0.00,,BKN055,0.18,VWS V14.00,2013-10-30 19:10:00,
2013-10-30 15:11:00,65.0,64.4,30.05,North,355,0.0,0.0,98,0.00,,BKN055,0.18,VWS V14.00,2013-10-30 19:11:00,
2013-10-30 15:20:00,63.6,63.0,30.06,WNW,302,0.0,0.0,98,0.00,,BKN055,0.18,VWS V14.00,2013-10-30 19:20:00,
2013-10-30 15:21:00,65.0,64.1,30.05,North,355,0.0,0.0,97,0.00,,BKN055,0.18,VWS V14.00,2013-10-30 19:21:00,
2013-10-30 15:30:00,63.7,63.1,30.05,WNW,302,0.0,0.0,98,0.00,,BKN055,0.18,VWS V14.00,2013-10-30 19:30:00,
2013-10-30 15:31:00,65.2,64.6,30.05,North,355,0.0,0.0,98,0.00,,BKN055,0.18,VWS V14.00,2013-10-30 19:31:00,
2013-10-30 15:40:00,63.9,63.3,30.05,WNW,302,0.0,0.0,98,0.00,,BKN055,0.18,VWS V14.00,2013-10-30 19:40:00,
2013-10-30 15:41:00,65.5,64.6,30.06,North,355,0.0,0.0,97,0.00,,BKN055,0.18,VWS V14.00,2013-10-30 19:41:00,
2013-10-30 15:50:00,64.3,64.0,30.05,WNW,302,0.0,0.0,99,0.00,,BKN055,0.18,VWS V14.00,2013-10-30 19:50:00,
2013-10-30 15:51:00,65.6,64.7,30.05,North,355,0.0,0.0,97,0.00,,BKN055,0.18,VWS V14.00,2013-10-30 19:51:00,
2013-10-30 16:00:00,64.8,64.2,30.06,North,355,0.0,0.0,98,0.00,,BKN055,0.18,VWS V14.00,2013-10-30 20:00:00,
2013-10-30 16:01:00,65.5,64.6,30.05,North,355,0.0,0.0,97,0.00,,BKN055,0.18,VWS V14.00,2013-10-30 20:01:00,
2013-10-30 16:10:00,65.0,64.4,30.05,North,355,0.0,0.0,98,0.00,,BKN055,0.18,VWS V14.00,2013-10-30 20:10:00,
2013-10-30 16:11:00,65.7,64.8,30.04,North,355,0.0,0.0,97,0.00,,BKN055,0.18,VWS V14.00,2013-10-30 20:11:00,
2013-10-30 16:20:00,65.0,64.1,30.05,North,355,0.0,0.0,97,0.00,,BKN055,0.18,VWS V14.00,2013-10-30 20:20:00,
2013-10-30 16:21:00,66.0,65.1,30.04,North,355,0.0,0.0,97,0.00,,BKN055,0.18,VWS V14.00,2013-10-30 20:21:00,
2013-10-30 16:30:00,65.2,64.6,30.05,North,355,0.0,0.0,98,0.00,,BKN055,0.18,VWS V14.00,2013-10-30 20:30:00,
2013-10-30 16:31:00,66.0,65.1,30.04,North,355,0.0,0.0,97,0.00,,BKN055,0.18,VWS V14.00,2013-10-30 20:31:00,
2013-10-30 16:40:00,65.5,64.6,30.06,North,355,0.0,0.0,97,0.00,,BKN055,0.18,VWS V14.00,2013-10-30 20:40:00,
2013-10-30 16:41:00,66.1,65.2,30.04,North,355,0.0,0.0,97,0.00,,BKN055,0.18,VWS V14.00,2013-10-30 20:41:00,
2013-10-30 16:50:00,65.6,64.7,30.05,North,355,0.0,0.0,97,0.00,,BKN055,0.18,VWS V14.00,2013-10-30 20:50:00,
2013-10-30 16:51:00,66.2,65.3,30.04,North,355,0.0,0.0,97,0.00,,BKN055,0.18,VWS V14.00,2013-10-30 20:51:00,
2013-10-30 17:00:00,65.5,64.6,30.05,North,355,0.0,0.0,97,0.00,,BKN055,0.18,VWS V14.00,2013-10-30 21:00:00,
2013-10-30 17:01:00,66.3,65.4,30.04,North,355,0.0,0.0,97,0.00,,BKN055,0.18,VWS V14.00,2013-10-30 21:01:00,
2013-10-30 17:10:00,65.7,64.8,30.04,North,355,0.0,0.0,97,0.00,,BKN055,0.18,VWS V14.00,2013-10-30 21:10:00,
2013-10-30 17:11:00,66.2,65.0,30.03,WSW,258,0.0,1.0,96,0.00,,BKN055,0.18,VWS V14.00,2013-10-30 21:11:00,
2013-10-30 17:20:00,66.0,65.1,30.04,North,355,0.0,0.0,97,0.00,,BKN055,0.18,VWS V14.00,2013-10-30 21:20:00,
2013-10-30 17:21:00,66.2,65.0,30.03,WSW,257,0.0,0.0,96,0.00,,BKN055,0.18,VWS V14.00,2013-10-30 21:21:00,
2013-10-30 17:30:00,66.0,65.1,30.04,North,355,0.0,0.0,97,0.00,,BKN055,0.18,VWS V14.00,2013-10-30 21:30:00,
2013-10-30 17:31:00,66.2,65.0,30.04,WSW,258,0.0,0.0,96,0.00,,BKN055,0.18,VWS V14.00,2013-10-30 21:31:00,
2013-10-30 17:40:00,66.1,65.2,30.04,North,355,0.0,0.0,97,0.00,,BKN055,0.18,VWS V14.00,2013-10-30 21:40:00,
2013-10-30 17:41:00,66.1,64.9,30.04,West,261,0.0,1.0,96,0.00,,BKN055,0.18,VWS V14.00,2013-10-30 21:41:00,
2013-10-30 17:50:00,66.2,65.3,30.04,North,355,0.0,0.0,97,0.00,,BKN055,0.18,VWS V14.00,2013-10-30 21:50:00,
2013-10-30 17:51:00,66.1,64.9,30.03,West,261,0.0,0.0,96,0.00,,BKN055,0.18,VWS V14.00,2013-10-30 21:51:00,
2013-10-30 18:00:00,66.3,65.4,30.04,North,355,0.0,0.0,97,0.00,,BKN055,0.18,VWS V14.00,2013-10-30 22:00:00,
2013-10-30 18:01:00,66.1,64.9,30.03,West,261,0.0,0.0,96,0.00,,BKN055,0.18,VWS V14.00,2013-10-30 22:01:00,
2013-10-30 18:10:00,66.2,65.0,30.03,WSW,258,0.0,1.0,96,0.00,,BKN055,0.18,VWS V14.00,2013-10-30 22:10:00,
2013-10-30 18:11:00,66.1,64.9,30.03,West,260,0.0,0.0,96,0.00,,BKN055,0.18,VWS V14.00,2013-10-30 22:11:00,
2013-10-30 18:20:00,66.2,65.0,30.03,WSW,257,0.0,0.0,96,0.00,,BKN055,0.18,VWS V14.00,2013-10-30 22:20:00,
2013-10-30 18:21:00,65.8,64.6,30.03,West,261,0.0,0.0,96,0.00,,BKN055,0.18,VWS V14.00,2013-10-30 22:21:00,
2013-10-30 18:30:00,66.2,65.0,30.04,WSW,258,0.0,0.0,96,0.00,,BKN055,0.18,VWS V14.00,2013-10-30 22:30:00,
2013-10-30 18:31:00,65.4,64.2,30.03,West,261,0.0,0.0,96,0.00,,BKN055,0.18,VWS V14.00,2013-10-30 22:31:00,
2013-10-30 18:40:00,66.1,64.9,30.04,West,261,0.0,1.0,96,0.00,,BKN055,0.18,VWS V14.00,2013-10-30 22:40:00,
2013-10-30 18:41:00,65.1,64.2,30.03,West,261,0.0,0.0,97,0.00,,BKN055,0.18,VWS V14.00,2013-10-30 22:41:00,
2013-10-30 18:50:00,66.1,64.9,30.03,West,261,0.0,0.0,96,0.00,,BKN055,0.18,VWS V14.00,2013-10-30 22:50:00,
2013-10-30 18:51:00,65.0,64.1,30.03,West,260,0.0,0.0,97,0.00,,BKN055,0.18,VWS V14.00,2013-10-30 22:51:00,
2013-10-30 19:00:00,66.1,64.9,30.03,West,261,0.0,0.0,96,0.00,,BKN055,0.18,VWS V14.00,2013-10-30 23:00:00,
2013-10-30 19:10:00,66.1,64.9,30.03,West,260,0.0,0.0,96,0.00,,BKN055,0.18,VWS V14.00,2013-10-30 23:10:00,
2013-10-30 19:11:00,64.9,64.3,30.04,West,260,0.0,0.0,98,0.00,,BKN055,0.18,VWS V14.00,2013-10-30 23:11:00,
2013-10-30 19:20:00,65.8,64.6,30.03,West,261,0.0,0.0,96,0.00,,BKN055,0.18,VWS V14.00,2013-10-30 23:20:00,
2013-10-30 19:21:00,64.9,64.0,30.04,West,261,0.0,0.0,97,0.00,,BKN055,0.18,VWS V14.00,2013-10-30 23:21:00,
2013-10-30 19:30:00,65.4,64.2,30.03,West,261,0.0,0.0,96,0.00,,BKN055,0.18,VWS V14.00,2013-10-30 23:30:00,
2013-10-30 19:31:00,64.7,64.1,30.03,West,260,0.0,0.0,98,0.00,,BKN055,0.18,VWS V14.00,2013-10-30 23:31:00,
2013-10-30 19:40:00,65.1,64.2,30.03,West,261,0.0,0.0,97,0.00,,BKN055,0.18,VWS V14.00,2013-10-30 23:40:00,
2013-10-30 19:41:00,64.6,64.0,30.03,West,261,0.0,0.0,98,0.00,,BKN055,0.18,VWS V14.00,2013-10-30 23:41:00,
2013-10-30 19:50:00,65.0,64.1,30.03,West,260,0.0,0.0,97,0.00,,BKN055,0.18,VWS V14.00,2013-10-30 23:50:00,
2013-10-30 19:51:00,64.5,63.6,30.03,West,260,0.0,0.0,97,0.00,,BKN055,0.18,VWS V14.00,2013-10-30 23:51:00,
2013-10-30 20:00:00,64.9,64.0,30.03,West,261,0.0,0.0,97,0.00,,BKN055,0.18,VWS V14.00,2013-10-31 00:00:00,
2013-10-30 20:01:00,64.3,63.4,30.03,West,261,0.0,0.0,97,0.00,,BKN055,0.18,VWS V14.00,2013-10-31 00:01:00,
2013-10-30 20:10:00,64.9,64.3,30.04,West,260,0.0,0.0,98,0.00,,BKN055,0.18,VWS V14.00,2013-10-31 00:10:00,
2013-10-30 20:11:00,64.0,63.1,30.03,West,261,0.0,0.0,97,0.00,,BKN055,0.18,VWS V14.00,2013-10-31 00:11:00,
2013-10-30 20:20:00,64.9,64.0,30.04,West,261,0.0,0.0,97,0.00,,BKN055,0.18,VWS V14.00,2013-10-31 00:20:00,
2013-10-30 20:21:00,63.5,62.9,30.03,West,260,0.0,0.0,98,0.00,,BKN055,0.18,VWS V14.00,2013-10-31 00:21:00,
2013-10-30 20:30:00,64.7,64.1,30.03,West,260,0.0,0.0,98,0.00,,BKN055,0.18,VWS V14.00,2013-10-31 00:30:00,
2013-10-30 20:31:00,63.4,62.8,30.03,West,261,0.0,0.0,98,0.00,,BKN055,0.18,VWS V14.00,2013-10-31 00:31:00,
2013-10-30 20:40:00,64.6,64.0,30.03,West,261,0.0,0.0,98,0.00,,BKN055,0.18,VWS V14.00,2013-10-31 00:40:00,
2013-10-30 20:41:00,63.1,62.5,30.02,West,260,0.0,0.0,98,0.00,,BKN055,0.18,VWS V14.00,2013-10-31 00:41:00,
2013-10-30 20:50:00,64.5,63.6,30.03,West,260,0.0,0.0,97,0.00,,BKN055,0.18,VWS V14.00,2013-10-31 00:50:00,
2013-10-30 20:51:00,62.7,62.1,30.02,West,261,0.0,0.0,98,0.00,,BKN055,0.18,VWS V14.00,2013-10-31 00:51:00,
2013-10-30 21:00:00,64.3,63.4,30.03,West,261,0.0,0.0,97,0.00,,BKN055,0.18,VWS V14.00,2013-10-31 01:00:00,
2013-10-30 21:01:00,62.6,62.0,30.02,West,261,0.0,0.0,98,0.00,,BKN055,0.18,VWS V14.00,2013-10-31 01:01:00,
2013-10-30 21:10:00,64.0,63.1,30.03,West,261,0.0,0.0,97,0.00,,BKN055,0.18,VWS V14.00,2013-10-31 01:10:00,
2013-10-30 21:11:00,62.1,61.5,30.01,West,261,0.0,0.0,98,0.00,,BKN055,0.18,VWS V14.00,2013-10-31 01:11:00,
2013-10-30 21:20:00,63.5,62.9,30.03,West,260,0.0,0.0,98,0.00,,BKN055,0.18,VWS V14.00,2013-10-31 01:20:00,
2013-10-30 21:21:00,62.2,61.9,30.01,West,260,0.0,0.0,99,0.00,,BKN055,0.18,VWS V14.00,2013-10-31 01:21:00,
2013-10-30 21:30:00,63.4,62.8,30.03,West,261,0.0,0.0,98,0.00,,BKN055,0.18,VWS V14.00,2013-10-31 01:30:00,
2013-10-30 21:31:00,62.1,61.8,30.00,West,261,0.0,0.0,99,0.00,,BKN055,0.18,VWS V14.00,2013-10-31 01:31:00,
2013-10-30 21:40:00,63.1,62.5,30.02,West,260,0.0,0.0,98,0.00,,BKN055,0.18,VWS V14.00,2013-10-31 01:40:00,
2013-10-30 21:41:00,62.6,62.3,30.00,West,260,0.0,0.0,99,0.00,,BKN055,0.18,VWS V14.00,2013-10-31 01:41:00,
2013-10-30 21:50:00,62.7,62.1,30.02,West,261,0.0,0.0,98,0.00,,BKN055,0.18,VWS V14.00,2013-10-31 01:50:00,
2013-10-30 21:51:00,62.3,62.0,30.00,West,262,0.0,0.0,99,0.00,,BKN055,0.18,VWS V14.00,2013-10-31 01:51:00,
2013-10-30 22:00:00,62.6,62.0,30.02,West,261,0.0,0.0,98,0.00,,BKN055,0.18,VWS V14.00,2013-10-31 02:00:00,
2013-10-30 22:01:00,62.9,62.6,30.00,West,265,0.0,1.0,99,0.00,,BKN055,0.18,VWS V14.00,2013-10-31 02:01:00,
2013-10-30 22:10:00,62.1,61.5,30.01,West,261,0.0,0.0,98,0.00,,BKN055,0.18,VWS V14.00,2013-10-31 02:10:00,
2013-10-30 22:11:00,63.3,63.3,30.00,WNW,283,0.0,3.0,100,0.00,,BKN055,0.18,VWS V14.00,2013-10-31 02:11:00,
2013-10-30 22:20:00,62.2,61.9,30.01,West,260,0.0,0.0,99,0.00,,BKN055,0.18,VWS V14.00,2013-10-31 02:20:00,
2013-10-30 22:21:00,63.3,63.3,30.00,WNW,282,0.0,0.0,100,0.00,,BKN055,0.18,VWS V14.00,2013-10-31 02:21:00,
2013-10-30 22:30:00,62.1,61.8,30.00,West,261,0.0,0.0,99,0.00,,BKN055,0.18,VWS V14.00,2013-10-31 02:30:00,
2013-10-30 22:31:00,63.7,63.7,30.00,WNW,282,0.0,0.0,100,0.00,,BKN055,0.18,VWS V14.00,2013-10-31 02:31:00,
2013-10-30 22:40:00,62.6,62.3,30.00,West,260,0.0,0.0,99,0.00,,BKN055,0.18,VWS V14.00,2013-10-31 02:40:00,
2013-10-30 22:41:00,63.8,63.8,30.00,WNW,282,0.0,0.0,100,0.00,,BKN055,0.18,VWS V14.00,2013-10-31 02:41:00,
2013-10-30 22:50:00,62.3,62.0,30.00,West,262,0.0,0.0,99,0.00,,BKN055,0.18,VWS V14.00,2013-10-31 02:50:00,
2013-10-30 22:51:00,63.8,63.5,30.00,WNW,282,0.0,0.0,99,0.00,,BKN055,0.18,VWS V14.00,2013-10-31 02:51:00,
2013-10-30 23:00:00,62.9,62.6,30.00,West,265,0.0,1.0,99,0.00,,BKN055,0.18,VWS V14.00,2013-10-31 03:00:00,
2013-10-30 23:01:00,64.0,63.7,30.00,WNW,282,0.0,0.0,99,0.00,,BKN055,0.18,VWS V14.00,2013-10-31 03:01:00,
2013-10-30 23:10:00,63.3,63.3,30.00,WNW,283,0.0,3.0,100,0.00,,BKN055,0.18,VWS V14.00,2013-10-31 03:10:00,
2013-10-30 23:11:00,64.1,63.8,30.00,SW,221,0.0,0.0,99,0.00,,BKN055,0.18,VWS V14.00,2013-10-31 03:11:00,
2013-10-30 23:20:00,63.3,63.3,30.00,WNW,282,0.0,0.0,100,0.00,,BKN055,0.18,VWS V14.00,2013-10-31 03:20:00,
2013-10-30 23:21:00,63.9,63.3,30.00,SW,222,0.0,0.0,98,0.00,,BKN055,0.18,VWS V14.00,2013-10-31 03:21:00,
2013-10-30 23:30:00,63.7,63.7,30.00,WNW,282,0.0,0.0,100,0.00,,BKN055,0.18,VWS V14.00,2013-10-31 03:30:00,
2013-10-30 23:31:00,63.8,63.2,30.00,SW,222,0.0,0.0,98,0.00,,BKN055,0.18,VWS V14.00,2013-10-31 03:31:00,
2013-10-30 23:40:00,63.8,63.8,30.00,WNW,282,0.0,0.0,100,0.00,,BKN055,0.18,VWS V14.00,2013-10-31 03:40:00,
2013-10-30 23:41:00,63.9,63.3,30.00,SW,230,0.0,2.0,98,0.00,,BKN055,0.18,VWS V14.00,2013-10-31 03:41:00,
2013-10-30 23:50:00,63.8,63.5,30.00,WNW,282,0.0,0.0,99,0.00,,BKN055,0.18,VWS V14.00,2013-10-31 03:50:00,
2013-10-30 23:51:00,64.2,63.6,29.99,SW,229,0.0,2.0,98,0.00,,BKN055,0.18,VWS V14.00,2013-10-31 03:51:00,